Starlink 5076

operational
NORAD ID: 55401 Int'l Des: 2023-014 Owner: SPXS Country: US Constellation: starlink
LEOCIRCULAR

About Starlink 5076

Description loading...

Live Position

Loading 3D Globe...

Upcoming Passes

Altitude History

Altitude vs Time

uPlot chart will show altitude changes over time

Two-Line Element Set

1 55401U 23014L 25347.54712146 -.00000624 00000-0 -44512-4 0 9990
2 55401 69.9999 281.5884 0002881 270.7518 89.3311 14.98332117159158
Epoch: Dec 13, 2025 • Age: 17 hours

Current Status

Altitude 595.1 km
Velocity 7.56 km/s
Sub-Earth Point -67.96°S, 37.25°E
Launch Date Jan 31, 2023
Age 2.8 years
Type internet

Technical Details

Classification Payload
Mass 305.00 kg
Dry Mass 290.00 kg
Total Mass 305.00 kg
Length 0.20 m
Diameter 2.80 m
Span 9.00 m
Shape Box + pan
Manufacturer SPXS
Bus Type Starlink
Phase Status In Orbit
Owner/State SPXS/US

Large Constellations

Loading constellations...